Terminal Aerodrome Forecast
Issued by NWS Portland, ME

Home | Current Version | Previous Version | Text Only | Print | Product List | Glossary On
Versions: 1 2 3 4 5 6 7 8 9 10 11 12 13 14 15 16 17 18 19 20 21 22
000
FTUS41 KGYX 251123
TAFCON
TAF
KCON 251123Z 2512/2612 19005KT 6SM BR OVC002
     FM251300 30007KT P6SM SCT025 SCT060
     FM251700 30010G15KT P6SM SCT060
     FM260000 30006KT P6SM SKC=

USA.gov is the U.S. government's official web portal to all federal, state and local government web resources and services.